Time,TemperatureF,DewpointF,PressureIn,WindDirection,WindDirectionDegrees,WindSpeedMPH,WindSpeedGustMPH,Humidity,HourlyPrecipIn,Conditions,Clouds,dailyrainin,SoftwareType,DateUTC
2013-02-19 00:02:00,35.0,31.0,30.23,SE,128,0.0,-999.0,84,-99.99,,,-99.99,,2013-02-19 05:02:00,
2013-02-19 00:12:00,35.0,31.0,30.23,SE,128,0.0,-999.0,84,-99.99,,,-99.99,,2013-02-19 05:12:00,
2013-02-19 00:22:00,35.0,31.0,30.23,SE,128,0.0,-999.0,85,-99.99,,,-99.99,,2013-02-19 05:22:00,
2013-02-19 00:32:00,35.0,31.0,30.23,SE,128,0.0,-999.0,85,-99.99,,,-99.99,,2013-02-19 05:32:00,
2013-02-19 00:43:00,35.0,31.0,30.23,SE,128,0.0,-999.0,85,-99.99,,,-99.99,,2013-02-19 05:43:00,
2013-02-19 00:52:00,35.0,31.0,30.22,SE,128,0.0,-999.0,86,-99.99,,,-99.99,,2013-02-19 05:52:00,
2013-02-19 01:02:00,36.0,32.0,30.22,SE,128,0.0,-999.0,86,-99.99,,,-99.99,,2013-02-19 06:02:00,
2013-02-19 01:12:00,36.0,32.0,30.22,SE,128,0.0,-999.0,86,-99.99,,,-99.99,,2013-02-19 06:12:00,
2013-02-19 01:22:00,36.0,32.0,30.22,SE,128,0.0,-999.0,86,-99.99,,,-99.99,,2013-02-19 06:22:00,
2013-02-19 01:32:00,36.0,33.0,30.22,SE,128,0.0,-999.0,87,-99.99,,,-99.99,,2013-02-19 06:32:00,
2013-02-19 01:42:00,36.0,33.0,30.22,SE,128,0.0,-999.0,87,-99.99,,,-99.99,,2013-02-19 06:42:00,
2013-02-19 01:53:00,37.0,34.0,30.21,SE,128,0.0,-999.0,87,-99.99,,,-99.99,,2013-02-19 06:53:00,
2013-02-19 02:01:00,37.0,34.0,30.21,SE,128,0.0,-999.0,87,-99.99,,,-99.99,,2013-02-19 07:01:00,
2013-02-19 02:11:00,37.0,34.0,30.21,SE,128,0.0,-999.0,87,-99.99,,,-99.99,,2013-02-19 07:11:00,
2013-02-19 02:22:00,37.0,34.0,30.20,SE,128,0.0,-999.0,87,-99.99,,,-99.99,,2013-02-19 07:22:00,
2013-02-19 02:32:00,37.0,34.0,30.19,SE,128,0.0,-999.0,87,-99.99,,,-99.99,,2013-02-19 07:32:00,
2013-02-19 02:42:00,37.0,34.0,30.19,SE,128,0.0,-999.0,87,-99.99,,,-99.99,,2013-02-19 07:42:00,
2013-02-19 02:52:00,38.0,34.0,30.17,SE,128,0.0,-999.0,87,-99.99,,,-99.99,,2013-02-19 07:52:00,
2013-02-19 03:02:00,38.0,34.0,30.16,SE,128,0.0,-999.0,87,-99.99,,,-99.99,,2013-02-19 08:02:00,
2013-02-19 03:11:00,38.0,34.0,30.16,SE,128,0.0,-999.0,87,-99.99,,,-99.99,,2013-02-19 08:11:00,
2013-02-19 03:21:00,37.0,34.0,30.16,SE,128,0.0,-999.0,87,-99.99,,,-99.99,,2013-02-19 08:21:00,
2013-02-19 03:32:00,37.0,34.0,30.15,SE,128,0.0,-999.0,88,-99.99,,,-99.99,,2013-02-19 08:32:00,
2013-02-19 03:42:00,37.0,34.0,30.15,SE,128,0.0,-999.0,88,-99.99,,,-99.99,,2013-02-19 08:42:00,
2013-02-19 03:52:00,37.0,34.0,30.14,SE,128,0.0,-999.0,89,-99.99,,,-99.99,,2013-02-19 08:52:00,
2013-02-19 04:02:00,37.0,34.0,30.14,SE,128,0.0,-999.0,89,-99.99,,,-99.99,,2013-02-19 09:02:00,
2013-02-19 04:11:00,37.0,34.0,30.14,SE,128,0.0,-999.0,89,-99.99,,,-99.99,,2013-02-19 09:11:00,
2013-02-19 04:22:00,38.0,35.0,30.12,SE,128,0.0,-999.0,90,-99.99,,,-99.99,,2013-02-19 09:22:00,
2013-02-19 04:32:00,37.0,34.0,30.12,SE,128,0.0,-999.0,90,-99.99,,,-99.99,,2013-02-19 09:32:00,
2013-02-19 04:42:00,37.0,34.0,30.12,SE,128,0.0,-999.0,90,-99.99,,,-99.99,,2013-02-19 09:42:00,
2013-02-19 04:53:00,37.0,34.0,30.11,SE,128,0.0,-999.0,90,-99.99,,,-99.99,,2013-02-19 09:53:00,
2013-02-19 05:02:00,37.0,34.0,30.11,SE,128,0.0,-999.0,90,-99.99,,,-99.99,,2013-02-19 10:02:00,
2013-02-19 05:11:00,37.0,34.0,30.11,SE,128,0.0,-999.0,90,-99.99,,,-99.99,,2013-02-19 10:11:00,
2013-02-19 05:22:00,37.0,35.0,30.11,SE,128,0.0,-999.0,91,-99.99,,,-99.99,,2013-02-19 10:22:00,
2013-02-19 05:32:00,37.0,35.0,30.11,SE,128,0.0,-999.0,91,-99.99,,,-99.99,,2013-02-19 10:32:00,
2013-02-19 05:42:00,37.0,35.0,30.11,SE,128,0.0,-999.0,91,-99.99,,,-99.99,,2013-02-19 10:42:00,
2013-02-19 05:52:00,36.0,34.0,30.10,SE,128,0.0,-999.0,92,-99.99,,,-99.99,,2013-02-19 10:52:00,
2013-02-19 06:01:00,37.0,35.0,30.09,SE,128,0.0,-999.0,92,-99.99,,,-99.99,,2013-02-19 11:01:00,
2013-02-19 06:11:00,36.0,34.0,30.09,SE,128,0.0,-999.0,93,-99.99,,,-99.99,,2013-02-19 11:11:00,
2013-02-19 06:22:00,36.0,34.0,30.09,SE,128,0.0,-999.0,93,-99.99,,,-99.99,,2013-02-19 11:22:00,
2013-02-19 06:32:00,36.0,34.0,30.09,SE,128,0.0,-999.0,93,-99.99,,,-99.99,,2013-02-19 11:32:00,
2013-02-19 06:42:00,36.0,34.0,30.09,SE,128,0.0,-999.0,93,-99.99,,,-99.99,,2013-02-19 11:42:00,
2013-02-19 06:52:00,37.0,35.0,30.08,SE,128,0.0,-999.0,93,-99.99,,,-99.99,,2013-02-19 11:52:00,
2013-02-19 07:02:00,37.0,35.0,30.08,SE,128,0.0,-999.0,94,-99.99,,,-99.99,,2013-02-19 12:02:00,
2013-02-19 07:12:00,37.0,35.0,30.08,SE,128,0.0,-999.0,94,-99.99,,,-99.99,,2013-02-19 12:12:00,
2013-02-19 07:22:00,37.0,35.0,30.08,SE,128,0.0,-999.0,94,-99.99,,,-99.99,,2013-02-19 12:22:00,
2013-02-19 07:32:00,37.0,35.0,30.07,SE,128,0.0,-999.0,94,-99.99,,,-99.99,,2013-02-19 12:32:00,
2013-02-19 07:42:00,37.0,35.0,30.07,SE,128,0.0,-999.0,94,-99.99,,,-99.99,,2013-02-19 12:42:00,
2013-02-19 07:52:00,37.0,35.0,30.08,SE,128,0.0,-999.0,94,-99.99,,,-99.99,,2013-02-19 12:52:00,
2013-02-19 08:02:00,38.0,36.0,30.09,SE,128,0.0,-999.0,94,-99.99,,,-99.99,,2013-02-19 13:02:00,
2013-02-19 08:11:00,38.0,36.0,30.09,SE,128,0.0,-999.0,94,-99.99,,,-99.99,,2013-02-19 13:11:00,
2013-02-19 08:22:00,39.0,38.0,30.09,SE,128,0.0,-999.0,95,-99.99,,,-99.99,,2013-02-19 13:22:00,
2013-02-19 08:32:00,42.0,40.0,30.09,SE,128,0.0,-999.0,94,-99.99,,,-99.99,,2013-02-19 13:32:00,
2013-02-19 08:42:00,42.0,40.0,30.09,SE,128,0.0,-999.0,94,-99.99,,,-99.99,,2013-02-19 13:42:00,
2013-02-19 08:52:00,44.0,42.0,30.10,SE,128,0.0,-999.0,94,-99.99,,,-99.99,,2013-02-19 13:52:00,
2013-02-19 09:02:00,44.0,42.0,30.10,SE,128,0.0,-999.0,94,-99.99,,,-99.99,,2013-02-19 14:02:00,
2013-02-19 09:12:00,44.0,42.0,30.10,SE,128,0.0,-999.0,94,-99.99,,,-99.99,,2013-02-19 14:12:00,
2013-02-19 09:22:00,46.0,44.0,30.10,SE,128,0.0,-999.0,92,-99.99,,,-99.99,,2013-02-19 14:22:00,
2013-02-19 09:33:00,49.0,47.0,30.10,SE,128,0.0,-999.0,92,-99.99,,,-99.99,,2013-02-19 14:33:00,
2013-02-19 09:42:00,49.0,47.0,30.10,SE,128,0.0,-999.0,92,-99.99,,,-99.99,,2013-02-19 14:42:00,
2013-02-19 09:52:00,53.0,50.0,30.09,SE,128,0.0,-999.0,91,-99.99,,,-99.99,,2013-02-19 14:52:00,
2013-02-19 10:02:00,54.0,51.0,30.09,SSE,164,0.0,-999.0,89,-99.99,,,-99.99,,2013-02-19 15:02:00,
2013-02-19 10:11:00,54.0,51.0,30.09,SSE,164,0.0,-999.0,89,-99.99,,,-99.99,,2013-02-19 15:11:00,
2013-02-19 10:21:00,57.0,52.0,30.08,SSW,212,0.0,-999.0,84,-99.99,,,-99.99,,2013-02-19 15:21:00,
2013-02-19 10:32:00,58.0,52.0,30.06,SE,142,0.0,-999.0,81,-99.99,,,-99.99,,2013-02-19 15:32:00,
2013-02-19 10:42:00,58.0,52.0,30.06,SE,142,0.0,-999.0,81,-99.99,,,-99.99,,2013-02-19 15:42:00,
2013-02-19 10:52:00,60.0,53.0,30.06,SSW,202,1.0,-999.0,77,-99.99,,,-99.99,,2013-02-19 15:52:00,
2013-02-19 11:02:00,61.0,53.0,30.05,South,179,1.0,-999.0,75,-99.99,,,-99.99,,2013-02-19 16:02:00,
2013-02-19 11:11:00,61.0,53.0,30.05,South,179,1.0,-999.0,75,-99.99,,,-99.99,,2013-02-19 16:11:00,
2013-02-19 11:22:00,62.0,52.0,30.05,South,191,2.0,-999.0,71,-99.99,,,-99.99,,2013-02-19 16:22:00,
2013-02-19 11:32:00,63.0,52.0,30.05,West,272,2.0,-999.0,68,-99.99,,,-99.99,,2013-02-19 16:32:00,
2013-02-19 11:42:00,63.0,52.0,30.05,West,272,2.0,-999.0,68,-99.99,,,-99.99,,2013-02-19 16:42:00,
2013-02-19 11:52:00,63.0,52.0,30.06,SW,229,2.0,-999.0,67,-99.99,,,-99.99,,2013-02-19 16:52:00,
2013-02-19 12:01:00,62.0,53.0,30.05,South,182,4.0,-999.0,72,-99.99,,,-99.99,,2013-02-19 17:01:00,
2013-02-19 12:11:00,62.0,53.0,30.05,South,182,4.0,-999.0,72,-99.99,,,-99.99,,2013-02-19 17:11:00,
2013-02-19 12:21:00,59.0,54.0,30.04,South,180,1.0,-999.0,84,-99.99,,,-99.99,,2013-02-19 17:21:00,
2013-02-19 12:32:00,57.0,53.0,30.03,South,188,1.0,-999.0,87,-99.99,,,-99.99,,2013-02-19 17:32:00,
2013-02-19 12:42:00,57.0,54.0,30.03,South,182,0.0,-999.0,91,-99.99,,,-99.99,,2013-02-19 17:42:00,
2013-02-19 12:52:00,57.0,54.0,30.03,South,182,0.0,-999.0,91,-99.99,,,-99.99,,2013-02-19 17:52:00,
2013-02-19 13:01:00,58.0,56.0,30.02,SSW,192,1.0,-999.0,92,-99.99,,,-99.99,,2013-02-19 18:01:00,
2013-02-19 13:11:00,58.0,56.0,30.02,SSW,192,1.0,-999.0,92,-99.99,,,-99.99,,2013-02-19 18:11:00,
2013-02-19 13:21:00,57.0,55.0,30.01,SW,230,1.0,-999.0,92,-99.99,,,-99.99,,2013-02-19 18:21:00,
2013-02-19 13:32:00,57.0,55.0,30.00,SW,226,0.0,-999.0,93,-99.99,,,-99.99,,2013-02-19 18:32:00,
2013-02-19 13:42:00,57.0,55.0,29.99,SSE,167,2.0,-999.0,94,-99.99,,,-99.99,,2013-02-19 18:42:00,
2013-02-19 13:52:00,57.0,55.0,29.99,SSE,167,2.0,-999.0,94,-99.99,,,-99.99,,2013-02-19 18:52:00,
2013-02-19 14:01:00,57.0,55.0,29.97,SSW,200,1.0,-999.0,94,-99.99,,,-99.99,,2013-02-19 19:01:00,
2013-02-19 14:11:00,57.0,55.0,29.97,SSW,200,1.0,-999.0,94,-99.99,,,-99.99,,2013-02-19 19:11:00,
2013-02-19 14:21:00,57.0,56.0,29.97,SSW,205,1.0,-999.0,95,-99.99,,,-99.99,,2013-02-19 19:21:00,
2013-02-19 14:32:00,57.0,56.0,29.97,SSW,198,1.0,-999.0,95,-99.99,,,-99.99,,2013-02-19 19:32:00,
2013-02-19 14:42:00,57.0,56.0,29.97,SSW,198,1.0,-999.0,95,-99.99,,,-99.99,,2013-02-19 19:42:00,
2013-02-19 14:52:00,56.0,55.0,29.96,SSE,163,1.0,-999.0,95,-99.99,,,-99.99,,2013-02-19 19:52:00,
2013-02-19 15:01:00,56.0,55.0,29.96,West,279,1.0,-999.0,96,-99.99,,,-99.99,,2013-02-19 20:01:00,
2013-02-19 15:12:00,56.0,55.0,29.96,West,279,1.0,-999.0,96,-99.99,,,-99.99,,2013-02-19 20:12:00,
2013-02-19 15:22:00,57.0,56.0,29.96,South,188,2.0,-999.0,96,-99.99,,,-99.99,,2013-02-19 20:22:00,
2013-02-19 15:32:00,57.0,56.0,29.94,SSE,155,1.0,-999.0,96,-99.99,,,-99.99,,2013-02-19 20:32:00,
2013-02-19 15:42:00,57.0,56.0,29.94,SSE,155,1.0,-999.0,96,-99.99,,,-99.99,,2013-02-19 20:42:00,
2013-02-19 15:52:00,57.0,56.0,29.94,SSW,211,1.0,-999.0,97,-99.99,,,-99.99,,2013-02-19 20:52:00,
2013-02-19 16:02:00,57.0,56.0,29.94,West,262,1.0,-999.0,97,-99.99,,,-99.99,,2013-02-19 21:02:00,
2013-02-19 16:11:00,57.0,56.0,29.94,West,262,1.0,-999.0,97,-99.99,,,-99.99,,2013-02-19 21:11:00,
2013-02-19 16:21:00,57.0,56.0,29.94,SSW,207,0.0,-999.0,97,-99.99,,,-99.99,,2013-02-19 21:21:00,
2013-02-19 16:32:00,57.0,56.0,29.95,SW,219,0.0,-999.0,97,-99.99,,,-99.99,,2013-02-19 21:32:00,
2013-02-19 16:42:00,57.0,56.0,29.95,SW,219,0.0,-999.0,97,-99.99,,,-99.99,,2013-02-19 21:42:00,
2013-02-19 16:52:00,57.0,56.0,29.95,SW,219,0.0,-999.0,97,-99.99,,,-99.99,,2013-02-19 21:52:00,
2013-02-19 17:02:00,56.0,55.0,29.95,SW,218,0.0,-999.0,97,-99.99,,,-99.99,,2013-02-19 22:02:00,
2013-02-19 17:11:00,56.0,55.0,29.95,SW,218,0.0,-999.0,97,-99.99,,,-99.99,,2013-02-19 22:11:00,
2013-02-19 17:21:00,57.0,56.0,29.94,West,273,0.0,-999.0,97,-99.99,,,-99.99,,2013-02-19 22:21:00,
2013-02-19 17:32:00,57.0,56.0,29.95,West,269,0.0,-999.0,97,-99.99,,,-99.99,,2013-02-19 22:32:00,
2013-02-19 17:42:00,57.0,56.0,29.95,West,269,0.0,-999.0,97,-99.99,,,-99.99,,2013-02-19 22:42:00,
2013-02-19 17:52:00,57.0,56.0,29.95,West,268,0.0,-999.0,97,-99.99,,,-99.99,,2013-02-19 22:52:00,
2013-02-19 18:01:00,56.0,55.0,29.95,SSE,167,0.0,-999.0,97,-99.99,,,-99.99,,2013-02-19 23:01:00,
2013-02-19 18:11:00,56.0,55.0,29.95,SSE,167,0.0,-999.0,97,-99.99,,,-99.99,,2013-02-19 23:11:00,
2013-02-19 18:21:00,57.0,56.0,29.95,West,263,0.0,-999.0,97,-99.99,,,-99.99,,2013-02-19 23:21:00,
2013-02-19 18:32:00,56.0,55.0,29.95,West,265,0.0,-999.0,97,-99.99,,,-99.99,,2013-02-19 23:32:00,
2013-02-19 18:42:00,56.0,55.0,29.95,West,265,0.0,-999.0,97,-99.99,,,-99.99,,2013-02-19 23:42:00,
2013-02-19 18:52:00,56.0,55.0,29.96,WSW,256,0.0,-999.0,97,-99.99,,,-99.99,,2013-02-19 23:52:00,
2013-02-19 19:01:00,56.0,55.0,29.96,WNW,300,0.0,-999.0,97,-99.99,,,-99.99,,2013-02-20 00:01:00,
2013-02-19 19:11:00,56.0,55.0,29.96,WNW,300,0.0,-999.0,97,-99.99,,,-99.99,,2013-02-20 00:11:00,
2013-02-19 19:21:00,56.0,55.0,29.97,West,271,0.0,-999.0,97,-99.99,,,-99.99,,2013-02-20 00:21:00,
2013-02-19 19:32:00,56.0,55.0,29.97,West,275,1.0,-999.0,97,-99.99,,,-99.99,,2013-02-20 00:32:00,
2013-02-19 19:42:00,56.0,55.0,29.97,West,275,1.0,-999.0,97,-99.99,,,-99.99,,2013-02-20 00:42:00,
2013-02-19 19:52:00,55.0,54.0,29.97,West,275,0.0,-999.0,97,-99.99,,,-99.99,,2013-02-20 00:52:00,
2013-02-19 20:02:00,55.0,54.0,29.97,West,275,0.0,-999.0,97,-99.99,,,-99.99,,2013-02-20 01:02:00,
2013-02-19 20:11:00,55.0,54.0,29.97,West,275,0.0,-999.0,97,-99.99,,,-99.99,,2013-02-20 01:11:00,
2013-02-19 20:21:00,54.0,53.0,29.97,West,275,0.0,-999.0,97,-99.99,,,-99.99,,2013-02-20 01:21:00,
2013-02-19 20:32:00,54.0,53.0,29.98,West,275,0.0,-999.0,97,-99.99,,,-99.99,,2013-02-20 01:32:00,
2013-02-19 20:42:00,54.0,53.0,29.98,West,275,0.0,-999.0,97,-99.99,,,-99.99,,2013-02-20 01:42:00,
2013-02-19 20:52:00,53.0,52.0,29.98,West,275,0.0,-999.0,97,-99.99,,,-99.99,,2013-02-20 01:52:00,
2013-02-19 21:02:00,52.0,51.0,29.98,West,275,0.0,-999.0,97,-99.99,,,-99.99,,2013-02-20 02:02:00,
2013-02-19 21:11:00,52.0,51.0,29.98,West,275,0.0,-999.0,97,-99.99,,,-99.99,,2013-02-20 02:11:00,
2013-02-19 21:21:00,51.0,50.0,29.99,West,275,0.0,-999.0,97,-99.99,,,-99.99,,2013-02-20 02:21:00,
2013-02-19 21:32:00,50.0,49.0,29.98,West,275,0.0,-999.0,97,-99.99,,,-99.99,,2013-02-20 02:32:00,
2013-02-19 21:42:00,50.0,49.0,29.98,West,275,0.0,-999.0,97,-99.99,,,-99.99,,2013-02-20 02:42:00,
2013-02-19 21:52:00,49.0,48.0,29.99,West,275,0.0,-999.0,97,-99.99,,,-99.99,,2013-02-20 02:52:00,
2013-02-19 22:02:00,49.0,48.0,29.99,West,275,0.0,-999.0,97,-99.99,,,-99.99,,2013-02-20 03:02:00,
2013-02-19 22:12:00,49.0,48.0,29.99,West,275,0.0,-999.0,97,-99.99,,,-99.99,,2013-02-20 03:12:00,
2013-02-19 22:22:00,49.0,48.0,29.99,West,275,0.0,-999.0,97,-99.99,,,-99.99,,2013-02-20 03:22:00,
2013-02-19 22:32:00,49.0,48.0,30.00,West,275,0.0,-999.0,97,-99.99,,,-99.99,,2013-02-20 03:32:00,
2013-02-19 22:42:00,49.0,48.0,30.00,West,275,0.0,-999.0,97,-99.99,,,-99.99,,2013-02-20 03:42:00,
2013-02-19 22:52:00,49.0,48.0,30.00,West,275,0.0,-999.0,97,-99.99,,,-99.99,,2013-02-20 03:52:00,
2013-02-19 23:01:00,49.0,48.0,29.99,West,275,0.0,-999.0,97,-99.99,,,-99.99,,2013-02-20 04:01:00,
2013-02-19 23:11:00,49.0,48.0,29.99,West,275,0.0,-999.0,97,-99.99,,,-99.99,,2013-02-20 04:11:00,
2013-02-19 23:21:00,49.0,48.0,29.99,West,275,0.0,-999.0,97,-99.99,,,-99.99,,2013-02-20 04:21:00,
2013-02-19 23:31:00,48.0,47.0,30.00,West,275,0.0,-999.0,97,-99.99,,,-99.99,,2013-02-20 04:31:00,
2013-02-19 23:42:00,48.0,47.0,30.00,West,275,0.0,-999.0,97,-99.99,,,-99.99,,2013-02-20 04:42:00,
2013-02-19 23:52:00,49.0,48.0,30.01,West,273,0.0,-999.0,97,-99.99,,,-99.99,,2013-02-20 04:52:00,